     2              OBSERVATION DATA    GPS                 RINEX VERSION / TYPE
teqc 1998Mar9 19980907 20:08:41UTC                          PGM / RUN BY / DATE
                                                            COMMENT
BIT 2 OF LLI FLAGS DATA COLLECTED UNDER A-S CONDITION       COMMENT
BIT 2 OF LLI FLAGS DATA COLLECTED UNDER A-S CONDITION       COMMENT
Original Marker Name: SOLSTICE CYN B2 1966                  COMMENT
Campaign Name: Ventura Basin 1992                           COMMENT
4-Character Station Name: CATO                              COMMENT
6-Character Antenna Code: TRMSST                            COMMENT
Vertical Measurement Point: BGP                             COMMENT
Vertical Offset to Rinex Ref. Point: 0.0597                 COMMENT
Radial Measurement Point: NGP                               COMMENT
Radial Offset to Rinex Ref. Point: 0.2334                   COMMENT
Antenna Height from Field Measurement: 1.2950 m             COMMENT
MIT02 flaky. Wouldn't power up, then froze when             COMMENT
sessions entered. Suspect a power short or input            COMMENT
problem. Finally got working, after opening rear            COMMENT
and jiggling connectors.                                    COMMENT
Original XYZ: 0.0000 0.0000 0.0000                          COMMENT
New XYZ position is based on association with SCEC monument COMMENT
E1C7Y2R3+0011. Position of that monument is believed to be  COMMENT
valid to within 1 m horizontally; vertical accuracy         COMMENT
should be no worse than 3-times this value.                 COMMENT
                                                            COMMENT
Revised Rinex header created by UCSD GPS archive for        COMMENT
GSAC on 06-Apr-1999 (1999:096) 03:54:33 GMT                 COMMENT
For assistance contact dagnew@ucsd.edu or hjohnson@ucsd.edu COMMENT
                                                            COMMENT
SOLSTICE CYN B2 AUX 1 1966                                  MARKER NAME
UNKNOWN OBSERVER MIT                                        OBSERVER / AGENCY
437 TRIMBLE 4000 SST NP 4.64 / SP 4.20                      REC # / TYPE / VERS
24 TR 4000SST L1/L2 GEO                                     ANT # / TYPE
 -2546658.0000 -4635080.0000  3554797.0000                  APPROX POSITION XYZ
        1.2141        0.0000        0.0000                  ANTENNA: DELTA H/E/N
     1     1     0                                          WAVELENGTH FACT L1/2
     3    C1    L1    L2                                    # / TYPES OF OBSERV
     0                                                      INTERVAL
  1992     5    25    15     1   30.000000                  TIME OF FIRST OBS
  1992     5    25    16    29   60.000000                  TIME OF LAST OBS
                                                            END OF HEADER
 92  5 25 15  1 30.0000000  0  3G18G14G19
  21411638.875          -0.16318        -0.25831
  21816852.461          -0.26217        -0.17431
  22144553.9064         -0.93856        -0.06571
 92  5 25 15  2  0.0000000  0  3G18G14G19
  21395944.0314     -82473.35448    -64264.55861
  21828785.9694      62714.45647     48868.85861
  22129421.2584     -79517.76845    -61960.72861
 92  5 25 15  2 30.0000000  0  3G18G14G19
  21380356.7894    -164388.76448   -128095.23261
  21840859.5634     126162.32847     98308.20261
  22114407.1724    -158425.69746   -123447.92761
 92  5 25 15  3  0.0000000  0  3G18G14G19
  21364733.5704    -246483.26348   -192064.94961
  21852932.0084     189597.49447    147738.14761
  22099366.5234    -237471.45346   -185042.01561
 92  5 25 15  3 30.0000000  0  3G18G14G19
  21349172.5004    -328259.66648   -255786.81561
  21865094.406      253510.755 7    197540.63821
  22084394.656     -316148.810 6   -246349.03121
 92  5 25 15  4  0.0000000  0  3G18G14G19
  21333662.1804    -409768.33548   -319300.05161
  21877335.2424     317832.96347    247661.79061
  22069483.0704    -394510.89346   -307410.38661
 92  5 25 15  4 30.0000000  0  3G18G14G19
  21318142.9454    -491325.95048   -382851.42861
  21889591.688      382238.084 7    297847.53021
  22054568.3674    -472898.73046   -368491.82961
 92  5 25 15  5  0.0000000  0  3G18G14G19
  21302664.7974    -572650.22547   -446220.99161
  21901919.148      447016.524 7    348324.14021
  22039698.8754    -551023.16946   -429368.00561
 92  5 25 15  5 30.0000000  0  3G18G14G19
  21287154.7274    -654150.45447   -509727.66961
  21914238.8524     511760.57747    398773.94561
  22024810.3524    -629280.93646   -490348.08861
 92  5 25 15  6  0.0000000  0  3G18G14G19
  21271723.1174    -735249.77447   -572921.94761
  21926662.2114     577047.77747    449647.01061
  22010001.8914    -707107.36346   -550992.05261
 92  5 25 15  6 30.0000000  0  3G18G14G19
  21256323.9384    -816172.06348   -635978.27561
  21939147.1724     642663.95747    500776.43361
  21995229.469     -784732.862 6   -611479.43921
 92  5 25 15  7  0.0000000  0  3G18G14G19
  21240990.7034    -896758.11448   -698772.60061
  21951726.1884     708769.65946    552287.30661
  21980524.7974    -861986.22746   -671676.85961
 92  5 25 15  7 30.0000000  0  3G18G14G19
  21225707.1564    -977073.77448   -761356.21061
  21964382.617      775274.862 6    604109.46221
  21965879.438     -938942.350 6   -731642.64321
 92  5 25 15  8  0.0000000  0  3G18G14G19
  21210456.3054   -1057220.81548   -823808.42761
  21977094.906      842074.818 7    656161.28821
  21951273.836    -1015700.322 6   -791454.02721
 92  5 25 15  8 30.0000000  0  3G18G14G19
  21195220.297    -1137273.442 8   -886187.07221
  21989846.8754     909077.11147    708370.79161
  21936697.6334   -1092316.25646   -851154.74761
 92  5 25 15  9  0.0000000  0  3G18G14G19
  21180043.969    -1217032.134 8   -948336.67521
  22002668.9144     976464.16547    760880.11561
  21922186.0784   -1168580.25346   -910581.24561
 92  5 25 15  9 30.0000000  0  3G18G14G19
  21164898.2034   -1296627.49148  -1010359.02061
  22015538.5704    1044095.84647    813580.05361
  21907712.3834   -1244617.91446   -969831.36061
 92  5 25 15 10  0.0000000  0  3G18G14G19
  21149830.1334   -1375813.87748  -1072062.68661
  22028500.141     1112214.023 7    866659.06821
  21893332.3754   -1320201.63846  -1028727.76961
 92  5 25 15 10 30.0000000  0  4G18G14G19G28
  21134841.3834   -1454575.67648  -1133435.50861
  22041562.3364    1180840.54647    920134.20061
  21879033.000    -1395341.202 6  -1087278.04621
  24530559.3674         -0.21954
 92  5 25 15 11  0.0000000  0  4G18G14G19G28
  21119904.0784   -1533071.97248  -1194601.44961
  22054688.125     1249818.451 7    973883.13921
  21864780.0634   -1470219.83746  -1145625.02061
  24513907.8134     -87492.61344
 92  5 25 15 11 30.0000000  0  4G18G14G19G28
  21105023.5234   -1611259.52348  -1255526.81762
  22067886.9774    1319182.25447   1027932.78161
  21850591.703    -1544818.416 6  -1203753.80221
  24497305.3984    -174730.93343
 92  5 25 15 12  0.0000000  0  4G18G14G19G28
  21090220.7734   -1689052.07848  -1316144.38762
  22081176.4844    1389016.06346   1082348.64961
  21836461.8134   -1619072.45146  -1261614.07061
  24480765.6334    -261640.17442
 92  5 25 15 12 30.0000000  0  4G18G14G19G28
  21075478.4694   -1766528.76948  -1376515.83362
  22094542.2814    1459257.35846   1137082.04761
  21822382.5394   -1693029.75746  -1319243.10861
  24464280.266     -348276.323 3        -0.01831
 92  5 25 15 13  0.0000000  0  4G18G14G19G28
  21060800.7274   -1843658.22948  -1436616.70662
  22107987.7194    1529918.09946   1192142.29961
  21808375.828    -1766632.938 6  -1376596.19721
  24447854.352     -434597.097 4    -67262.94721
 92  5 25 15 13 30.0000000  0  4G18G14G19G28
  21046188.1724   -1920452.11848  -1496456.10162
  22121513.8754    1600999.46547   1247530.31061
  21794440.180    -1839875.511 6  -1433668.31421
  24431487.938     -520584.060 3   -134265.69621
 92  5 25 15 14  0.0000000  0  4G18G14G19G28
  21031627.1334   -1996976.76948  -1556085.69562
  22135111.563     1672454.907 6   1303209.84021
  21780559.4924   -1912796.98446  -1490490.22461
  24415185.992     -606258.159 3   -201024.65921
 92  5 25 15 14 30.0000000  0  4G18G14G19G28
  21017097.9844   -2073318.59848  -1615572.82862
  22148765.336     1744197.278 6   1359112.94821
  21766736.1954   -1985466.17646  -1547115.56161
  24398932.711     -691684.684 4   -267590.65921
 92  5 25 15 15  0.0000000  0  4G18G14G19G28
  21002610.6724   -2149445.85348  -1674892.76062
  22162471.4224    1816217.02446   1415232.16561
  21752956.0394   -2057890.75246  -1603550.28661
  24382725.7584    -776855.19543
 92  5 25 15 15 30.0000000  0  4G18G14G19G28
  20988207.2034   -2225147.72748  -1733881.22861
  22176265.797     1888717.205 6   1471725.75021
  21739249.5084   -2129891.45746  -1659654.72161
  24366605.7194    -861583.08043        -0.40671
 92  5 25 15 16  0.0000000  0  4G18G14G19G28
  20973849.8054   -2300586.88848  -1792664.98961
  22190115.3524    1961504.45146   1528442.99761
  21725603.4304   -2201651.04546  -1715571.28361
  24350530.6254    -946067.37143
 92  5 25 15 16 30.0000000  0  4G18G14G19G28
  20959610.1484   -2375427.63348  -1850982.44261
  22204078.1644    2034879.98646   1585618.66961
  21712045.3914   -2272855.37046  -1771055.14961
  24334555.3984   -1030015.13545
 92  5 25 15 17  0.0000000  0  4G18G14G19G28
  20945399.8834   -2450095.75048  -1909165.37461
  22218072.602     2108411.697 6   1642916.03021
  21698515.4454   -2343941.74846  -1826447.13761
  24318596.3364   -1113858.60243
 92  5 25 15 17 30.0000000  0  4G18G14G19G28
  20931295.1954   -2524210.34348  -1966916.99161
  22232175.1024    2182518.62747   1700661.61061
  21685097.7974   -2414488.94046  -1881418.96661
  24302739.3364   -1197178.00742        -0.12871
 92  5 25 15 18  0.0000000  0  4G18G14G19G28
  20917222.5164   -2598171.76048  -2024549.25461
  22246310.0314    2256799.92846   1758543.07661
  21671700.2034   -2484881.01346  -1936269.91961
  24286912.1804   -1280340.78043
 92  5 25 15 18 30.0000000  0  4G18G14G19G28
  20903189.8594   -2671912.55848  -2082009.60362
  22260493.1954    2331332.06546   1816620.00261
  21658346.1024   -2555042.54046  -1990941.21761
  24271133.602    -1363252.779 2
 92  5 25 15 19  0.0000000  0  4G18G14G19G28
  20889163.1094   -2745614.63448  -2139439.78562
  22274692.7734    2405958.48046   1874770.39361
  21645013.2274   -2625140.31746  -2045562.84461
  24255374.2424   -1446065.07643
 92  5 25 15 19 30.0000000  0  4G18G14G19G28
  20875186.8204   -2819073.09048  -2196680.13562
  22288945.9224    2480855.78246   1933131.85261
  21631717.8134   -2694987.07946  -2099988.87561
  24239676.8524   -1528575.84844        -0.48771
 92  5 25 15 20  0.0000000  0  4G18G14G19G28
  20861277.7034   -2892162.88348  -2253633.20862
  22303268.945     2556114.455 6   1991774.88621
  21618488.156    -2764500.716 6  -2154155.36821
  24224049.969    -1610705.479 3
 92  5 25 15 20 30.0000000  0  4G18G14G19G28
  20847436.5944   -2964890.82748  -2310304.31862
  22317658.461     2631735.809 6   2050700.52521
  21605327.406    -2833686.020 6  -2208066.02621
  24208492.9924   -1692471.01244        -0.31771
 92  5 25 15 21  0.0000000  0  4G18G14G19G28
  20833654.633    -3037316.874 8  -2366740.17522
  22332103.3284    2707644.97646   2109850.45561
  21592209.5634   -2902617.19546  -2261778.63861
  24192990.2274   -1773938.44843
 92  5 25 15 21 30.0000000  0  3G18G14G19
  20819979.8204   -3109178.61948  -2422736.33662
  22346647.805     2784082.382 6   2169412.01021
  21579179.891    -2971056.313 6  -2315107.80421
 92  5 25 15 22  0.0000000  0  4G18G14G19G28
  20806368.8984   -3180710.69248  -2478475.60561
  22361257.7504    2860858.54946   2229237.53161
  21566216.523    -3039197.524 6  -2368204.80921
  24162254.5634     -80600.69343
 92  5 25 15 22 30.0000000  0  4G18G14G19G28
  20792818.8594   -3251912.06548  -2533957.18561
  22375934.9144    2937988.64246   2289338.85361
  21553310.5634   -3107017.16346  -2421051.26361
  24146981.203     -160844.867 3
 92  5 25 15 23  0.0000000  0  4G18G14G19G28
  20779322.4924   -3322834.92448  -2589221.74561
  22390669.6804    3015413.35546   2349669.72961
  21540455.469          -0.09516
  24131764.664     -240782.030 3
 92  5 25 15 23 30.0000000  0  4G18G14G19G28
  20765872.4384   -3393513.98248  -2644296.31561
  22405452.6804    3093104.10846   2410207.90261
  21527648.3284     -67312.21846        -0.18071
  24116607.547     -320448.924 2
 92  5 25 15 24  0.0000000  0  3G18G14G19
  20752455.2344   -3464034.56948  -2699247.41061
  22420269.2344    3170962.39646   2470876.61461
  21514867.609     -134459.510 6    -52322.72821
 92  5 25 15 24 30.0000000  0  3G18G14G19
  20739098.5864   -3534229.05648  -2753944.39661
  22435140.1334    3249103.86346   2531765.99661
  21502142.1564    -201317.70246   -104419.99361
 92  5 25 15 25  0.0000000  0  3G18G14G19
  20725786.1954   -3604181.36648  -2808452.67961
  22450044.117     3327424.950 6   2592795.36421
  21489457.484     -267977.181 6   -156362.40821
 92  5 25 15 25 29.9990000  0  3G18G14G19
  20712572.0974   -3673611.72248  -2862554.75161
  22465029.355     3406176.929 6   2654159.96121
  21476862.909     -334172.450 6   -207943.60421
 92  5 25 15 25 59.9990000  0  3G18G14G19
  20699444.8624   -3742595.57248  -2916308.67061
  22480081.355     3485278.362 6   2715797.08321
  21464335.440     -400008.853 6   -259244.95021
 92  5 25 15 26 29.9990000  0  3G18G14G19
                                  -2969772.44921
  22495189.3784         -0.09456
  21451866.573                          -0.10516
 92  5 25 15 26 59.9990000  0  3G18G14G19
  20673397.542    -3879475.223 8  -3022968.34121
  22510350.276       79670.118 6        -0.44831
  21439450.9724     -65242.96146        -0.39971
 92  5 25 15 27 29.9990000  0  3G18G14G19
  20660474.6444   -3947390.57048  -3075889.37761
  22525566.2534     159632.45546     62307.80961
  21427088.323     -130190.118 6    -50608.54821
 92  5 25 15 27 59.9990000  0  3G18G14G19
  20647604.1834   -4015022.20348  -3128589.33261
  22540830.5344     239838.38446    124805.85461
  21414773.7764    -194888.79546   -101023.08461
 92  5 25 15 28 29.9990000  0  3G18G14G19
  20634807.2304   -4082271.25148  -3180991.18661
  22556160.292      320394.550 6    187576.81221
  21402533.8234    -259224.99646   -151155.17861
 92  5 25 15 28 59.9990000  0  3G18G14G19
  20621992.2534   -4149617.87648  -3233469.07461
  22571460.6984     400801.37246    250231.41161
  21390265.3394    -323696.39146   -201392.62761
 92  5 25 15 29 29.9990000  0  3G18G14G19
  20609259.8234   -4216525.93648  -3285605.22161
  22586830.534      481573.696 6    313170.80821
  21378074.8234    -387767.49346   -251318.15461
 92  5 25 15 29 59.9990000  0  3G18G14G19
  20596549.6364   -4283313.79248  -3337647.69061
  22602208.7144     562393.01546    376146.82661
  21365903.065     -451754.413 6   -301178.06821
 92  5 25 15 30 29.9990000  0  3G18G14G19
  20583919.6984   -4349686.97248  -3389367.04961
  22617649.800      643530.022 6    439370.39621
  21353791.9804    -515377.19646   -350754.24261
 92  5 25 15 30 59.9990000  0  3G18G14G19
  20571327.9484   -4415865.27448  -3440934.54661
  22633107.636      724750.443 6    502658.95621
  21341705.870     -578863.820 6   -400224.32021
 92  5 25 15 31 29.9990000  0  3G18G14G19
  20558786.3474   -4481764.59648  -3492284.65261
  22648593.6054     806134.51546    566075.02061
  21329670.3314    -642138.80146   -449529.48461
 92  5 25 15 31 59.9990000  0  3G18G14G19
  20546329.7764   -4547224.52548  -3543292.37861
  22664139.4954     887834.32346    629737.12161
  21317700.2924    -705061.51846   -498560.15761
 92  5 25 15 32 29.9990000  0  4G18G14G19G28
  20533938.2764   -4612345.35948  -3594035.87661
  22679724.831      969746.614 6    693564.78921
  21305765.1984    -767741.19746   -547401.45061
  23854549.550      -73664.220 5
 92  5 25 15 32 59.9990000  0  4G18G14G19G28
  20521641.6514   -4676954.09848  -3644380.32961
  22695384.5734    1052044.22946    757692.71261
  21293920.862     -830014.172 6   -595925.81721
  23840626.2614    -146801.85844
 92  5 25 15 33 29.9990000  0  4G18G14G19G28
  20509408.2764   -4741252.88648  -3694483.26961
  22711080.4254    1134524.76346    821963.15761
  21282099.1514    -892090.74846   -644297.14761
  23826772.386     -219615.963 4        -0.47331
 92  5 25 15 33 59.9990000  0  4G18G14G19G28
  20497232.9874   -4805225.07748  -3744331.71462
  22726814.6754    1217203.97946    886388.41761
  21270331.5194    -953950.69846   -692499.69761
  23812981.1364    -292087.32345    -56471.64761
 92  5 25 15 34 29.9990000  0  4G18G14G19G28
  20485118.7304   -4868890.51348  -3793941.12262
  22742584.058     1300068.905 6    950958.37821
  21258605.0034   -1015602.85146   -740540.31261
  23799251.0894    -364230.77745   -112687.24861
 92  5 25 15 34 59.9990000  0  4G18G14G19G28
  20473063.6754   -4932244.67248  -3843307.98962
  22758385.394     1383106.105 6   1015662.59021
  21246905.3154   -1077056.11246   -788425.96361
  23785585.925     -436050.067 5   -168650.31821
 92  5 25 15 35 29.9990000  0  4G18G14G19G28
  20461097.4564   -4995133.92148  -3892313.08762
  22774251.0034    1466477.79946   1080626.95061
  21235279.9484   -1138141.58746   -836025.52761
  23772014.8314    -507372.71945   -224226.87961
 92  5 25 15 35 59.9990000  0  4G18G14G19G28
  20449214.722    -5057578.359 8  -3940970.57122
  22790175.245     1550159.097 6   1145833.53221
  21223728.128    -1198859.411 7   -883337.59921
  23758529.589     -578221.525 5   -279433.18621
 92  5 25 15 36 29.9990000  0  4G18G14G19G28
  20437391.7454   -5119701.27348  -3989378.02262
  22806135.136     1634026.968 6   1211185.03221
  21212223.925    -1259325.768 7   -930454.19621
  23745121.9484    -648706.76145   -334356.70961
 92  5 25 15 36 59.9990000  0  4G18G14G19G28
  20425687.5034   -5181203.87948  -4037302.39361
  22822188.315     1718380.580 6   1276914.73021
  21200823.5584   -1319230.31147   -977133.28261
  23731827.1514    -718525.82745   -388761.39461
 92  5 25 15 37 29.9990000  0  4G18G14G19G28
  20413984.0344   -5242703.80148  -4085224.11862
  22838216.151     1802619.494 6   1342555.61821
  21189417.331    -1379163.089 6  -1023833.84021
  23718562.448     -788274.386 5   -443110.57421
 92  5 25 15 37 59.9990000  0  4G18G14G19G28
  20402337.4724   -5303906.27448  -4132914.35261
  22854279.433     1887026.898 6   1408327.50521
  21178061.5814   -1438843.73146  -1070338.23261
  23705356.6834    -857655.82645   -497174.00261
 92  5 25 15 38 29.9990000  0  4G18G14G19G28
  20390745.4644   -5364833.96848  -4180390.47661
  22870368.5584    1971580.91046   1474213.63661
  21166744.8944   -1498304.87846  -1116671.58161
  23692216.886     -926685.547 5   -550963.33721
 92  5 25 15 38 59.9990000  0  4G18G14G19G28
  20379182.9954   -5425594.30248  -4227736.19061
  22886465.136     2056169.564 5   1540126.77721
  21155449.2224   -1557656.64247  -1162919.69261
  23679127.8004    -995477.64945   -604567.54161
 92  5 25 15 39 29.9990000  0  4G18G14G19G28
  20367698.8154   -5485943.90048  -4274761.84361
  22902612.7064    2141017.32846   1606241.80161
  21144216.5424   -1616674.11847  -1208907.32061
  23666132.605    -1063783.051 6   -657792.49221
 92  5 25 15 39 59.9990000  0  4G18G14G19G28
  20356333.0034   -5545670.15048  -4321301.76861
  22918840.565     2226306.332 5   1672700.68321
  21133088.5114   -1675170.04646  -1254488.54461
  23653266.2374   -1131414.64946   -710492.39761
 92  5 25 15 40 29.9990000  0  4G18G14G19G28
  20344970.4564   -5605367.71448  -4367819.63061
  22935041.940     2311432.984 5
  21121946.2924   -1733741.50746  -1300128.91161
  23640406.8704   -1198977.28345
 92  5 25 15 40 59.9990000  0  4G18G14G19G28
  20333725.0584   -5664459.88848  -4413865.19661
  22951315.6124         -0.16356
  21110886.0734   -1791844.41346  -1345403.62261
  23627673.8624         -0.36356
 92  5 25 15 41 29.9990000  0  4G18G14G19G28
  20322498.6124   -5723458.76048  -4459838.33862
  22967562.964       85378.569 6        -0.27031
  21099819.8784   -1850013.49046  -1390730.17161
  23614954.2224     -66820.76245        -0.46271
 92  5 25 15 41 59.9990000  0  4G18G14G19G28
  20311326.8554   -5782175.27448  -4505591.47061
  22983820.0344     170806.86345     66567.12361
  21088768.058    -1908066.530 7  -1435966.26721
  23602291.0114    -133363.08446    -51851.58061
 92  5 25 15 42 29.9990000  0  4G18G14G19G28
  20300205.3704   -5840609.30948  -4551124.48162
  23000086.175      256292.698 5    133179.37421
  21077751.3394   -1965999.16447  -1481108.55861
  23589682.1754    -199609.45546   -103472.08361
 92  5 25 15 42 59.9990000  0  4G18G14G19G28
  20289188.7224   -5898506.75848  -4596239.37061
  23016411.0264     342083.96945    200029.59261
  21066795.6594   -2023552.89447  -1525955.60561
  23577183.4334    -265300.07546   -154659.55261
 92  5 25 15 43 29.9990000  0  4G18G14G19G28
  20278230.9174   -5956102.23648
  23032752.9404     427962.74245    266947.97561
  21055876.4484   -2080923.78546
  23564748.495     -330650.044 6   -205581.56221
 92  5 25 15 43 59.9990000  0  4G18G14G19G28
  20267313.2304   -6013473.61348
  23049096.753      513859.248 5    333880.21721
  21044981.1284   -2138167.39846
  23552366.940     -395699.885 6   -256269.71321
 92  5 25 15 44 29.9990000  0  4G18G14G19G28
  20256485.7844   -6070389.99148
  23065491.0424     600014.65745    401014.20261
  21034143.6204   -2195035.93346
  23540095.214     -460193.168 6   -306524.18421
 92  5 25 15 44 59.9990000  0  4G18G14G19G28
  20245709.9564   -6126998.28848
  23081909.5034     686284.52045    468237.35461
  21023382.8864   -2251674.65446
  23527902.5504    -524278.02645   -356460.38561
 92  5 25 15 45 29.9990000  0  4G18G14G19G28
  20235028.2534   -6183131.19548
  23098382.425      772840.894 5    535683.77721
  21012677.5194   -2307917.47747
  23515819.456     -587787.490 5   -405948.25021
 92  5 25 15 45 59.9990000  0  4G18G14G19G28
  20224416.7844   -6238898.41148  -4861479.59362
  23114886.378      859568.742 5    603263.80021
  21002028.3944   -2363900.33547  -1655036.29361
  23503817.4954    -650849.91546   -455087.76361
 92  5 25 15 46 29.9990000  0  4G18G14G19G28
  20213883.5194   -6294238.22348  -4904601.51562
  23131434.480      946519.831 5    671017.77821
  20991435.8624   -2419579.95147  -1698423.00061
  23491904.526     -713436.539 6   -503856.54721
 92  5 25 15 46 59.9990000  0  4G18G14G19G28
  20203391.6514   -6349371.44248  -4947562.45562
  23147977.2614    1033446.86646    738753.00961
  20980848.167    -2475200.662 6  -1741763.83121
  23480045.4334    -775788.04846   -552442.10061
 92  5 25 15 47 29.9990000  0  4G18G14G19G28
  20192980.6364   -6404081.40348  -4990193.57862
  23164551.7614    1120549.00246    806624.69961
  20970316.2454   -2530556.14046  -1784897.97461
  23468264.2614    -837689.09946   -600676.65561
 92  5 25 15 47 59.9990000  0  4G18G14G19G28
  20182654.3624   -6458353.53148  -5032483.54661
  23181159.612     1207819.457 5    874627.54821
  20959829.9564   -2585646.40247  -1827825.43661
  23456564.9174    -899136.70745   -648557.84961
 92  5 25 15 48 29.9990000  0  4G18G14G19G28
  20172408.7924   -6512184.85748  -5074430.02462
  23197793.870     1295236.109 5    942744.29921
  20949405.206    -2640459.839 7  -1870537.17621
  23444965.792     -960114.039 5   -696072.63421
 92  5 25 15 48 59.9990000  0  4G18G14G19G28
  20162247.7374   -6565596.56548  -5116049.51961
  23214447.5114    1382755.96845   1010941.47561
  20939018.8394   -2695017.26447  -1913049.40661
  23433449.0114   -1020632.72045   -743230.03661
 92  5 25 15 49 29.9990000  0  4G18G14G19G28
  20152168.2764   -6618561.42448  -5157320.83662
  23231128.886     1470414.017 5   1079246.32321
  20928690.136    -2749276.515 7  -1955329.31821
  23422025.1754   -1080666.90545   -790009.89461
 92  5 25 15 49 59.9990000  0  4G18G14G19G28
  20142167.6514   -6671111.92448  -5198269.26761
  23247830.1124    1558182.34545   1147637.09561
  20918414.0584   -2803265.28347  -1997398.47061
  23410690.948    -1140242.889 5   -836432.70421
 92  5 25 15 50 29.9990000  0  4G18G14G19G28
  20132238.3234   -6723293.14248  -5238929.95461
  23264546.097     1646025.808 5   1216086.39321
  20908183.7924   -2857022.54447  -2039287.25261
  23399431.1984   -1199388.34345   -882520.04661
 92  5 25 15 50 59.9990000  0  4G18G14G19G28
  20122384.0654   -6775076.90948  -5279280.93961
  23281289.2144    1734003.95245   1284640.67161
  20898006.6444   -2910518.00547  -2080972.02161
  23388267.7534   -1258066.85545   -928243.51861
 92  5 25 15 51 29.9990000  0  4G18G14G19G28
  20112597.4874   -6826499.08948  -5319350.16661
  23298054.894     1822109.031 5   1353293.85021
  20887872.4254   -2963793.86947  -2122485.66661
  23377184.6364   -1316299.28945   -973619.38861
 92  5 25 15 51 59.9990000  0  4G18G14G19G28
  20102882.8554   -6877538.32548  -5359121.00361
  23314847.2844    1910357.72245   1422058.94961
  20877781.9954   -3016829.31547  -2163811.96561
  23366197.9404   -1374042.90445  -1018614.37661
 92  5 25 15 52 29.9990000  0  4G18G14G19G28
  20093242.3154   -6928214.23048  -5398608.72961
  23331662.534     1998728.454 5   1490919.14421
  20867727.7924   -3069644.05247  -2204966.28661
  23355298.862    -1431323.406 5  -1063248.51421
 92  5 25 15 52 59.9990000  0  4G18G14G19G28
  20083672.1594   -6978497.68948  -5437790.63661
  23348504.1364    2087224.60045   1559877.02561
  20857728.3154   -3122218.89947  -2245933.68361
  23344483.956    -1488134.639 5  -1107516.98121
 92  5 25 15 53 29.9990000  0  4G18G14G19G28
  20074194.1204   -7028323.95948  -5476616.30061
  23365373.5194    2175871.33945   1628952.26861
  20847771.1364   -3174506.23046  -2286677.04461
  23333769.7144   -1544440.75845  -1151391.87661
 92  5 25 15 53 59.9990000  0  4G18G14G19G28
  20064786.3234   -7077758.15148  -5515136.44861
  23382253.456     2264579.721 5   1698075.52421
  20837870.4014   -3226558.35347  -2327237.14461
  23323132.9254   -1600321.43445  -1194935.22761
 92  5 25 15 54 29.9990000  0  4G18G14G19G28
  20055459.4254   -7126757.18448  -5553317.50261
  23399154.253     2353385.597 5   1767274.78321
  20828015.5814   -3278350.47547  -2367594.63861
  23312591.011    -1655748.251 5  -1238124.96421
 92  5 25 15 54 59.9990000  0  4G18G14G19G28
  20046210.7694   -7175351.79748  -5591183.42461
  23416066.565     2442260.990 5   1836528.20021
  20818205.6754   -3329917.76047  -2407776.92961
  23302128.5194   -1710738.59446  -1280974.51561
 92  5 25 15 55 29.9990000  0  4G18G14G19G28
  20037043.3944   -7223523.16448  -5628719.54861
  23432999.456     2531248.373 5   1905868.86521
  20808442.4174   -3381218.38647  -2447751.42961
  23291755.714    -1765241.722 6  -1323444.46021
 92  5 25 15 55 59.9990000  0  4G18G14G19G28
  20027957.4254   -7271276.61248  -5665930.01761
  23449953.878     2620350.331 5   1975298.84421
  20798730.4484   -3432250.43847  -2487516.65161
  23281482.378    -1819236.568 6  -1365518.28321
 92  5 25 15 56 29.9990000  0  4G18G14G19G28
  20018954.9404   -7318598.56148  -5702804.26161
  23466931.5504    2709569.68645   2044820.28261
  20789065.1594   -3483015.71447  -2527074.00161
  23271307.948    -1872710.389 6  -1407186.16521
 92  5 25 15 56 59.9990000  0  4G18G14G19G28
  20010052.0654   -7365382.85948  -5739259.55661
  23483949.003     2799000.384 5   2114506.38221
  20779481.5194   -3533394.61046  -2566330.26961
  23261248.4404   -1925564.57246  -1448371.22061
 92  5 25 15 57 29.9990000  0  4G18G14G19G28
  20001239.0654   -7411693.06348  -5775345.42861
  23500989.042     2888552.465 5   2184287.10121
  20769959.995    -3583460.561 7  -2605342.68221
  23251293.4724   -1977878.47946  -1489135.31361
 92  5 25 15 57 59.9990000  0  4G18G14G19G28
  19992501.0344   -7457613.37948  -5811127.50261
  23518034.6594    2978128.05944   2254086.14461
  20760463.847    -3633317.348 7  -2644192.10021
  23241419.0654   -2029756.51746  -1529559.71761
 92  5 25 15 58 29.9990000  0  4G18G14G19G28
  19983888.8314   -7502872.57048  -5846394.40561
  23535136.7224    3068004.69944   2324119.74761
  20751066.8154   -3682701.82347  -2682673.50261
  23231675.487    -2080937.890 6  -1569441.29021
 92  5 25 15 58 59.9980000  0  4G18G14G19G28
  19975324.2324   -7547877.90948  -5881463.49461
  23552224.326     3157777.820 4   2394072.70321
  20741683.1624   -3732024.78147  -2721106.95761
  23221991.9674   -2131818.38646  -1609088.43261
 92  5 25 15 59 29.9980000  0  4G18G14G19G28
  19966810.4044   -7592612.02248  -5916321.51261
  23569294.7794    3247485.88044   2463974.64161
  20732314.3504   -3781275.02046  -2759484.04961
  23212379.0224   -2182361.40546  -1648472.87461
 92  5 25 15 59 59.9980000  0  4G18G14G19G28
  19958397.0224   -7636821.70248  -5950770.32761
  23586399.8974    3337374.32045
  20723002.8184   -3830196.84146  -2797604.66461
  23202876.701    -2232306.923 6  -1687391.15721
 92  5 25 16  0 29.9980000  0  4G18G14G19G28
  19950015.201    -7680882.432 8  -5985103.37821
  23603464.5374    3427050.71345        -0.30671
  20713679.3184   -3879170.41947  -2835765.90561
  23193408.029    -2282023.815 6  -1726131.57821
 92  5 25 16  0 59.9980000  0  4G18G14G19G28
  19941680.9204   -7724673.29948  -6019226.15161
  23620508.4514    3516622.46445     69795.70761
  20704378.2484   -3928059.63147  -2873861.37461
  23184019.4124   -2331386.61846  -1764596.08661
 92  5 25 16  1 29.9980000  0  4G18G14G19G28
  19933402.7644   -7768165.13548  -6053115.88661
  23637541.709     3606128.263 4    139540.26021
  20695104.350    -3976815.604 7
  23174702.545    -2380361.862 6
 92  5 25 16  1 59.9980000  0  4G18G14G19G28
  19925230.6234   -7811127.81748  -6086593.30461
  23654605.0454    3695787.52144    209404.49861
  20685886.920    -4025216.034 7
  23165495.240    -2428742.018 6
 92  5 25 16  2 29.9980000  0  1G19
  20676749.2794         -0.90857
 92  5 25 16  2 59.9980000  0  4G18G14G19G28
  19909137.1004     -42120.39248
  23688789.068       89806.952 4
  20667642.2874     -47874.47747
  23147376.0144     -47414.41146
 92  5 25 16  3 29.9980000  0  4G18G14G19G28
  19901184.4364     -83919.56648        -0.12371
  23705869.678      179582.065 4
  20658557.3034     -95606.04046        -0.45871
  23138424.9674     -94453.59246        -0.13171
 92  5 25 16  3 59.9980000  0  4G18G14G19G28
  19893312.8184    -125280.78748    -32229.65461
  23722962.545      269412.350 3
  20649516.8184    -143110.05246    -37016.57061
  23129568.1074    -141019.28446    -36285.07361
 92  5 25 16  4 29.9980000  0  4G18G14G19G28
  19885532.3574    -166167.18148    -64089.18061
  23740073.3034     359327.05143
  20640530.2564    -190350.14546    -73827.03561
  23120803.256     -187048.659 5    -72152.10821
 92  5 25 16  4 59.9980000  0  4G18G14G19G28
  19877845.2324    -206569.37148    -95571.39461
  23757199.670      449312.380 3
  20631583.1934    -237345.40046   -110446.70061
  23112150.264     -232520.044 5   -107584.36221
 92  5 25 16  5 29.9980000  0  4G18G14G19G28
  19870241.0764    -246534.76448   -126713.26761
  23774323.6234     539301.98343        -0.14471
  20622674.561     -284156.241 7   -146922.65421
  23103599.154     -277488.665 5   -142624.82521
 92  5 25 16  5 59.9980000  0  4G18G14G19G28
  19862742.8974                         -0.75058
  23791475.1624                         -0.42354
  20613833.443                          -0.00117
  23095165.7404                         -0.97155
 92  5 25 16  6 29.9980000  0  2G19G28
  20604995.131      -46447.180 5        -0.13531
  23086796.3184                     -43948.33643
 92  5 25 16  6 59.9980000  0  4G18G14G19G28
  19847932.9594         -0.22658
  23825708.4124         -0.55054
  20596192.7404     -92704.15546    -36044.50461
  23078531.5684                         -0.76056
 92  5 25 16  7 29.9980000  0  5G18G14G19G28G11
  19840647.7724     -38289.44348        -0.43571
  23842812.3894      89875.10445        -0.02871
  20587428.5064    -138775.28646    -71944.07161
  23070352.3814     -42972.31046        -0.03271
  24443397.5534         -0.89752
 92  5 25 16  7 59.9980000  0  4G18G14G19G28
  19833455.9514     -76089.52348    -29455.05161
  23859924.350      179793.639 5     70066.16121
  20578710.8114    -184574.74246   -107631.94261
  23062282.904      -85391.848 6    -33054.14421
 92  5 25 16  8 29.9980000  0  4G18G14G19G28
  19826353.1074    -113428.48248    -58550.34961
  23877042.8114     269737.55845
  20570037.1234    -230118.70046   -143120.72561
  23054306.279     -127299.932 5    -65709.76421
 92  5 25 16  8 59.9980000  0  5G18G14G19G28G 2
  19819321.3034    -150358.84548    -87327.27861
  23894157.6394     359681.39745
  20561422.4204    -275432.41546   -178430.10761
  23046423.287     -168736.260 5    -97997.81621
  24401714.2094         -0.88655
 92  5 25 16  9 29.9980000  0  5G18G14G19G28G 2
  19812371.2644    -186893.24048   -115795.64461
  23911277.850      449643.776 5        -0.13431
  20552840.600     -320506.401 6   -213552.67621
  23038634.717     -209687.513 5   -129907.89121
  24378215.6544    -123488.31645
 92  5 25 16  9 59.9980000  0  5G18G14G19G28G 2
  19805487.6784    -223053.16148   -143972.20861
  23928397.1704     539611.25245     70104.12661
  20544310.4434    -365353.35446   -248498.33661
  23030934.811     -250153.448 6   -161439.82021
  24354741.0764    -246842.24344
 92  5 25 16 10 29.9980000  0  5G18G14G19G28G 2
  19798693.0224    -258762.92748   -171798.01161
  23945528.514      629636.858 5    140253.69021
  20535831.2644    -409902.65646   -283212.06961
  23023337.1474    -290058.49546   -192534.64561
  24331298.3504    -369996.65543        -0.48971
 92  5 25 16 10 59.9980000  0  5G18G14G19G28G 2
  19791971.1394    -294092.72548   -199327.71661
  23962655.1154     719634.92145    210381.80761
  20527390.6704    -454252.76546   -317770.57261
  23015836.5224    -329471.92146   -223246.36061
  24307883.920     -493047.797 2    -95884.32921
 92  5 25 16 11 29.9980000  0  5G18G14G19G28G 2
  19785328.6704    -329002.26248   -226529.96261
  23979773.4124     809594.10344    280479.60061
  20518985.6394    -498408.76646   -352177.85261
  23008435.1864    -368384.58346   -253567.92261
  24284485.811     -616001.314 2   -191692.09021
 92  5 25 16 11 59.9980000  0  5G18G14G19G28G 2
  19778770.1074    -363466.68948   -253385.36361
  23996883.084      899505.807 4    350540.39121
  20510626.8424    -542379.29446   -386440.58361
  23001118.4754    -406813.14146   -283512.19661
  24261098.201     -738886.418 2   -287446.58921
 92  5 25 16 12 29.9980000  0  5G18G14G19G28G 2
  19772313.9124    -397392.93848   -279821.40761
  24013999.795      989446.343 4    420623.65221
  20502298.2404    -586104.91646   -420512.48961
  22993918.568     -444681.378 6   -313019.89621
  24237742.5684    -861647.83042   -383104.66061
 92  5 25 16 12 59.9980000  0  5G18G14G19G28G 2
  19765975.9514    -430701.79848   -305776.36661
  24031133.053     1079484.011 4    490782.63021
  20494043.5844    -629506.11347   -454331.58961
  22986828.4824    -481904.25746   -342024.68061
  24214419.6704    -984213.61643   -478610.30161
 92  5 25 16 13 29.9980000  0  4G18G14G19G28
  19759755.8264    -463387.25648   -331245.55161
  24048285.4904    1169630.01043    561026.01461
  20485845.4364    -672565.39847   -487884.25361
  22979875.654     -518461.046 6   -370510.44521
 92  5 25 16 13 59.9980000  0  5G18G14G19G28G 2
  19753618.4904    -495641.96548   -356379.08661
  24065431.709     1259725.626 3    631230.06421
  20477685.6314    -715453.01647   -521303.16261
  22973008.225     -554516.663 5   -398605.73321
  24167887.248     -122228.564 4
 92  5 25 16 14 29.9980000  0  5G18G14G19G28G 2
  19747565.0614    -527452.30248   -381166.64361
  24082570.7484    1349786.40544
  20469561.8264    -758134.16546   -554561.46661
  22966259.279     -590018.519 6   -426269.78221
  24144658.2254    -244285.16445        -0.08871
 92  5 25 16 14 59.9980000  0  5G18G14G19G28G 2
  19741567.3734    -558967.71448   -405723.83061
  24099674.4754    1439673.83643
  20461456.7954    -800736.49446   -587757.80261
  22959579.7644    -625113.11046   -453616.42861
  24121442.459     -366289.776 5    -95068.17621
 92  5 25 16 15 29.9980000  0  5G18G14G19G28G 2
  19735614.4594    -590245.70148   -430096.29761
  24116738.6544         -0.22154
  20453356.8654    -843312.57647   -620933.97261
  22952963.8894    -659857.32946   -480689.82761
  24098226.975     -488284.161 5   -190128.59521
 92  5 25 16 15 59.9980000  0  5G18G14G19G28G 2
  19729734.8034    -621151.10348   -454178.43261
  24133785.3654      89594.04143
  20445281.3034    -885729.44047   -653986.04761
  22946442.5374    -694137.92646   -507401.94461
  24075034.311     -610159.709 5   -285096.41821
 92  5 25 16 16 29.9980000  0  5G18G14G19G28G 2
  19723938.5224    -651599.46648   -477904.43061
  24150833.5064     179172.83143
  20437259.248     -927909.714 7   -686853.77121
  22940026.186     -727880.655 6   -533694.97021
  24051871.951     -731875.563 5   -379939.83621
 92  5 25 16 16 59.9980000  0  5G18G14G19G28G 2
  19718224.6864    -681622.83848   -501299.26361
  24167873.1394     268705.11442
  20429265.4514    -969908.86747   -719580.36461
  22933696.4514    -761141.92445   -559612.83161
  24028726.7404    -853494.78045   -474707.89761
 92  5 25 16 17 29.9980000  0  5G18G19G28G11G 2
  19712607.7794    -711144.31948   -524303.01861
  20421318.9434   -1011672.23447   -752123.22861
  22927470.936     -793857.312 5   -585105.30721
  24050183.7404         -0.56952
  24005612.5534    -974956.58545   -569353.32561
 92  5 25 16 17 59.9980000  0  4G18G19G28G 2
  19707088.5684    -740146.14948   -546901.84261
  20413416.8894   -1053194.63547   -784478.33361
  22921350.1704    -826019.72445   -610166.92961
  23982530.2254   -1096251.39045   -663868.59161
 92  5 25 16 18 29.9980000  0  4G18G19G28G 2
  19701649.4364    -768738.94548   -569181.94661
  20405538.0144   -1094591.98646   -816735.99161
  22915312.904     -857739.141 5   -634883.37321
  23959459.279    -1217480.715 5   -758332.84221
 92  5 25 16 18 59.9980000  0  4G18G19G28G 2
  19696295.7874    -796866.76448   -591099.73761
  20397696.8734   -1135811.40946   -848855.02161
  22909371.6234    -888971.05345   -659219.90661
  23936418.639    -1338585.672 5   -852700.18821
 92  5 25 16 19 29.9980000  0  4G18G19G28G 2
  19691026.7794    -824560.16848   -612679.01061
  20389879.7094   -1176860.97047   -880841.68961
  22903515.9754    -919745.20946   -683199.77061
  23913391.912    -1459579.961 5   -946981.35021
 92  5 25 16 19 59.9980000  0  4G18G19G28G 2
  19685843.7874    -851792.01448   -633898.64061
  20382112.2644   -1217693.35546   -912659.12761
  22897757.3894    -950015.48446   -706786.96461
  23890391.4984   -1580432.78544  -1041152.27961
 92  5 25 16 20 29.9980000  0  4G18G19G28G 2
  19680740.9754    -878606.32448   -654792.92361
  20374377.6934   -1258332.00046   -944325.59861
  22892084.4204    -979809.11546   -730002.80261
  23867410.4284   -1701188.23044  -1135247.29761
 92  5 25 16 20 59.9980000  0  4G18G19G28G 2
  19675728.2014    -904950.92848   -675321.20561
  20366694.7324   -1298711.78147   -975790.34461
  22886522.451    -1009035.147 6   -752776.33221
  23844465.8114   -1821776.65544  -1229212.18461
 92  5 25 16 21 29.9980000  0  4G18G19G28G 2
  19670799.9824    -930857.14648   -695507.87661
  20359052.9514   -1338869.04847  -1007081.70661
  22881061.115    -1037717.123 6   -775125.95821
  23821546.7174   -1942223.01144  -1323066.37761
 92  5 25 16 21 59.9980000  0  4G18G19G28G 2
  19665960.0144    -956287.79048   -715323.95961
  20351461.9204   -1378776.59547  -1038178.47761
  22875713.006    -1065807.107 6   -797014.26721
  23798661.389    -2062484.833 5  -1416776.78921
 92  5 25 16 22 29.9980000  0  5G18G19G28G11G 2
  19661208.1394    -981260.99248   -734783.60461
  20343908.357    -1418471.122 6  -1069109.25921
  22870480.9434   -1093338.28546   -818467.14961
  23858347.8574         -0.01754
  23775809.912    -2182577.525 5  -1510355.37521
 92  5 25 16 22 59.9980000  0  5G18G19G28G11G 2
  19656539.3424   -1005797.12348   -753902.66861
  20336380.6314   -1458001.87046  -1099912.42761
  22865338.3344   -1120349.97246   -839515.22461
  23839376.7644     -99686.44344
  23752986.732    -2302523.053 5  -1603819.33521
 92  5 25 16 23 29.9980000  0  5G18G19G28G11G 2
  19651979.8734   -1029754.94648   -772571.11061
  20328917.0224   -1497233.03146  -1130482.17061
  22860317.654    -1146738.769 6   -860077.94721
  23820475.4124    -199044.02342
  23730214.662    -2422188.717 5  -1697065.16521
 92  5 25 16 23 59.9980000  0  5G18G19G28G11G 2
  19647536.1784   -1053107.64048   -790768.03561
  20321511.9124   -1536134.73547  -1160795.18761
  22855421.4514   -1172463.76945   -880123.44561
  23801632.2794    -298037.69341
  23707502.420    -2541548.610 5  -1790072.74221
 92  5 25 16 24 29.9980000  0  5G18G19G28G11G 2
  19643179.3974   -1076002.13848   -808607.91961
  20314146.1394   -1574862.14946  -1190972.38661
  22850624.7794   -1197658.54845   -899755.74461
  23782841.4674    -396808.74242
  23684816.600    -2660759.760 5  -1882964.47021
 92  5 25 16 24 59.9980000  0  5G18G19G28G11G 2
  19638910.5374   -1098430.75748   -826084.78261
  20306815.5064   -1613398.98447  -1221001.09161
  22845934.1074   -1222309.35546   -918964.15861
  23764091.6234    -495337.69742
  23662160.6074   -2779810.96345  -1975731.54561
 92  5 25 16 25 29.9980000  0  4G18G19G28G 2
  19634734.0144   -1120376.20948   -843185.14861
  20299518.8574   -1651725.15747  -1250865.62961
  22841350.8344   -1246405.92446   -937740.70761
  23639538.1314   -2898692.22345  -2068366.17661
 92  5 25 16 25 59.9980000  0  4G18G19G28G 2
  19630676.7724   -1141706.45148   -859806.13461
  20292289.2794   -1689717.76647  -1280470.25361
  22836893.412    -1269813.055 6   -955980.03921
  23616971.592    -3017281.914 5  -2160773.63421
 92  5 25 16 26 29.9980000  0  4G18G19G28G 2
  19626668.232    -1162768.480 8   -876218.12721
  20285060.9434   -1727705.05847  -1310070.73961
  22832502.7324   -1292894.06246   -973965.23061
  23594394.5844   -3135916.84545  -2253216.33861
 92  5 25 16 26 59.9980000  0  4G18G19G28G 2
  19622731.779    -1183449.787 8   -892333.44621
  20277855.5064   -1765569.29247  -1339575.34261
  22828191.5764   -1315567.15446   -991632.57061
  23571830.8574   -3254490.32845
 92  5 25 16 27 29.9980000  0  6G18G16G19G28G11G 2
  19618891.9984   -1203628.53748   -908057.16161
  24132029.4754     -97967.46945
  20270697.3424   -1803187.96647  -1368888.59261
  22823974.4904   -1337697.19146  -1008876.77061
  23671016.6864         -0.98555
  23549303.240    -3372873.732 5
 92  5 25 16 27 59.9980000  0  6G18G16G19G28G11G 2
  19615140.1544   -1223355.62548   -923428.93361
  24113460.7564    -195535.93145
  20263575.5224   -1840603.29447  -1398043.37861
  22819865.7484   -1359292.95346  -1025704.64861
  23652524.2954     -97164.01944
  23526806.2404   -3491098.33945        -0.31771
 92  5 25 16 28 29.9980000  0  6G18G16G19G28G11G 2
  19611499.6864   -1242473.99948   -938326.38661
  24094999.8814    -292516.80644
  20256522.5454   -1877671.09247  -1426927.36061
  22815892.5684   -1380180.61646  -1041980.78361
  23634113.3344    -193916.44943        -0.01571
  23504372.6864   -3608993.32545    -91866.43161
 92  5 25 16 28 59.9980000  0  6G18G16G19G28G11G 2
  19607960.4904   -1261071.07848   -952817.63561
  24076641.3574    -389007.37044
  20249512.5844   -1914509.87546  -1455632.90761
  22812040.1934   -1400442.84446  -1057769.56161
  23615761.3184    -290350.81244
  23481985.397    -3726639.117 5   -183538.36621
 92  5 25 16 29 29.9980000  0  6G18G16G19G28G11G 2
  19604502.022    -1279244.369 8   -966978.66721
  24058354.7254    -485100.81244
  20242527.6624   -1951216.48246  -1484235.45861
  22808288.428    -1420161.891 6  -1073135.07321
  23597452.6864    -386555.85442
  23459629.154    -3844122.832 5   -275084.03321
